Regional Weather Roundup
Issued by NWS

Home | Current Version | Previous Version | Graphics & Text | Print | Product List | Glossary On
Versions: 1 2 3 4 5 6 7 8 9 10 11 12 13 14 15 16 17 18 19 20 21 22 23 24 25 26 27 28 29 30 31 32 33 34 35 36 37 38 39 40 41 42 43 44 45 46 47 48 49 50
000
ASUS45 KABQ 282001
RWRNM
WEATHER ROUNDUP FOR NEW MEXICO
NATIONAL WEATHER SERVICE ALBUQUERQUE NM
100 PM MST SUN DEC 28 2014

NOTE: "FAIR" MEANS FEW OR NO CLOUDS BELOW 12,000 FEET AGL WITH NO
       SIGNIFICANT WEATHER OR OBSTRUCTIONS TO VISION.

      THIS PRODUCT IS RELEASED AS TWO VERSIONS.  ONE VERSION NEAR
      THE TOP OF THE HOUR CONTAINING PRELIMINARY DATA FROM ALBUQUERQUE
      AND OTHER STATIONS.  A FINAL VERSION WITH ADDITIONAL DATA IS
      ISSUED ABOUT 10 MINUTES AFTER THE HOUR.

NMZ501-503-504-510>518-282100-
NORTHWEST PLATEAU/NORTHCENTRAL MOUNTAINS

CITY           SKY/WX    TMP DP  RH WIND       PRES   REMARKS
FARMINGTON     SUNNY     27  12  53 SE5       30.12F WCI  22
SANTA FE       SUNNY     31   7  36 W9G17     30.05F WCI  23
TAOS           MOSUNNY   21   9  58 SW5       30.04F WCI  15
ANGEL FIRE     FAIR      26   4  40 W24       29.94F HAZE    WCI  10

$$
NMZ402-403-502-505>509-282100-
WESTCENTRAL MOUNTAINS/SOUTHWEST MOUNTAINS

CITY           SKY/WX    TMP DP  RH WIND       PRES   REMARKS
GALLUP         MIX PCPN  30  12  47 W10       30.11F WCI  21
GRANTS         PTSUNNY   33   8  35 NW5       30.09F WCI  29
SILVER CITY    SUNNY     43  10  26 W12G17    30.15

$$
NMZ407-409-411-412-282100-
SOUTHERN DESERTS

CITY           SKY/WX    TMP DP  RH WIND       PRES   REMARKS
LORDSBURG      FAIR      43  21  42 N5        30.17F
DEMING         SUNNY     44  18  35 W6        30.16F
HOLLOMAN AFB   SUNNY     42  18  37 VRB6      30.14F
ALAMOGORDO     SUNNY     45  14  29 N9        30.16
T OR C         SUNNY     40  11  30 S9        30.12F WCI  34

$$
NMZ519>523-282100-
CENTRAL VALLEYS/CENTRAL HIGHLANDS

CITY           SKY/WX    TMP DP  RH WIND       PRES   REMARKS
ALBUQUERQUE    MOSUNNY   34   9  35 VRB7      30.11F WCI  28
DOUBLE EAGLE   PTSUNNY   32   7  34 SW6       30.10F WCI  26
MORIARTY ARPT  FAIR      35  11  36 NW9       30.05F WCI  28
CLINES CORNERS SUNNY     28  11  48 W33       29.95F WCI  11
BELEN          FAIR      36  11  35 S5        30.11  WCI  32
SOCORRO        FAIR      38   9  30 S5        30.12F WCI  34

$$
NMZ524>526-539-540-282100-
SOUTHCENTRAL MOUNTAINS

CITY           SKY/WX    TMP DP  RH WIND       PRES   REMARKS
RUIDOSO        NOT AVBL

$$
NMZ527>531-282100-
NORTHEAST HIGHLANDS/NORTHEAST PLAINS

CITY           SKY/WX    TMP DP  RH WIND       PRES   REMARKS
LAS VEGAS      SUNNY     43   6  21 CALM      29.90F
RATON          SUNNY     30   8  39 SE3       29.85F
CLAYTON        SUNNY     44   5  20 S16       29.86F

$$
NMZ532>537-282100-
EASTCENTRAL PLAINS

CITY           SKY/WX    TMP DP  RH WIND       PRES   REMARKS
TUCUMCARI      SUNNY     40  24  53 N5        29.91F
CANNON AFB     SUNNY     49   3  15 W25G37    29.94F
CLOVIS AIRPORT SUNNY     48   9  20 W26G33    29.93F

$$
NMZ028-029-538-282100-
SOUTHEAST PLAINS

CITY           SKY/WX    TMP DP  RH WIND       PRES   REMARKS
ROSWELL        SUNNY     51  18  27 S6        30.03F
ARTESIA        SUNNY     50  21  32 S9        30.05
CARLSBAD       SUNNY     51  25  36 W16       30.06F
HOBBS          SUNNY     46  25  42 SW16      30.07F


$$



USA.gov is the U.S. government's official web portal to all federal, state and local government web resources and services.